Weather History for LKPR - June, 2013

Change the Weather History Date:

Thursday, June 27, 2013

  Actual Average Record
Temperature  
Mean Temperature 53 °F -  
Max Temperature 60 °F 74 °F 84 °F (2006)
Min Temperature 46 °F 53 °F 43 °F (2014)
Degree Days  
Heating Degree Days 12    
Growing Degree Days 3 (Base 50)    
Moisture  
Dew Point 45 °F    
Average Humidity 74    
Maximum Humidity 93    
Minimum Humidity 43    
Precipitation  
Precipitation 0.00 in 0.09 in - ()
Sea Level Pressure  
Sea Level Pressure 30.23 in    
Wind  
Wind Speed 7 mph ()    
Max Wind Speed 13 mph    
Max Gust Speed -    
Visibility 6.2 miles    
Events      
Averages and records for this station are not official NWS values.
T = Trace of Precipitation, MM = Missing Value Source: Averaged Metar Reports

Daily Weather History Graph

Daily Weather History Graph

Search for Another Location

Airport or City:

Trip Planner

Search our weather history database for the weather conditions in past years. The results will help you decide how hot, cold, wet, or windy it might be!

Date:

Astronomy

Jun. 27, 2013 Rise Set
Actual Time 4:55 AM CEST 9:16 PM CEST
Civil Twilight 4:10 AM CEST 10:01 PM CEST
Nautical Twilight 3:04 AM CEST 11:06 PM CEST
Astronomical Twilight 1:38 AM CEST 12:33 AM CEST
Moon 11:30 PM CEST (6/27) 10:06 AM CEST (6/27)
Length of Visible Light 17h 50m
Length of Day
16h 21m
Waning Gibbous, 79% of the Moon is Illuminated
Jun 27
Waning Gibbous
Jun 30
Last Quarter
Jul 8
New
Jul 16
First Quarter
Jul 22
Full

Hourly Weather History & Observations

Time (CEST) Temp. Windchill Dew Point Humidity Pressure Visibility Wind Dir Wind Speed Gust Speed Precip Events Conditions
12:00 AM 48.2 °F - 42.8 °F 82% 30.27 in - WSW 9.2 mph - N/A   Clear
12:30 AM 48.2 °F - 42.8 °F 82% 30.27 in - WSW 12.7 mph - N/A   Clear
1:00 AM 48.2 °F - 42.8 °F 82% 30.27 in 6.2 mi WSW 10.4 mph - N/A   Partly Cloudy
1:30 AM 48.2 °F - 42.8 °F 82% 30.27 in 6.2 mi West 6.9 mph - N/A   Partly Cloudy
2:00 AM 47 °F - 44 °F 83% 30.30 in 25 mi SW 6.7 mph - -   Mostly Cloudy
2:00 AM 48.2 °F - 42.8 °F 82% 30.27 in - SW 8.1 mph - N/A   Clear
2:30 AM 46.4 °F 42.9 °F 44.6 °F 93% 30.27 in - SW 6.9 mph - N/A   Clear
3:00 AM 48.2 °F - 44.6 °F 87% 30.27 in - SW 9.2 mph - N/A   Clear
3:30 AM 48.2 °F - 44.6 °F 87% 30.27 in - SW 9.2 mph - N/A   Clear
4:00 AM 48.2 °F - 44.6 °F 87% 30.24 in - SW 9.2 mph - N/A   Clear
4:30 AM 48.2 °F - 44.6 °F 87% 30.24 in - SW 8.1 mph - N/A   Clear
5:00 AM 48.2 °F - 44.6 °F 87% 30.24 in - SW 6.9 mph - N/A   Clear
5:30 AM 48.2 °F - 44.6 °F 87% 30.24 in - SW 6.9 mph - N/A   Clear
6:00 AM 46.4 °F 42.4 °F 44.6 °F 93% 30.24 in - SW 8.1 mph - N/A   Clear
6:30 AM 48.2 °F - 44.6 °F 87% 30.24 in - SW 8.1 mph - N/A   Clear
7:00 AM 50.0 °F - 44.6 °F 82% 30.24 in - SW 6.9 mph - N/A   Clear
7:30 AM 50.0 °F - 44.6 °F 82% 30.24 in - SW 8.1 mph - N/A   Clear
8:00 AM 53 °F - 45 °F 67% 30.27 in 22 mi SW 6.7 mph - -   Mostly Cloudy
8:00 AM 53.6 °F - 44.6 °F 72% 30.24 in - WSW 8.1 mph - N/A   Clear
8:30 AM 51.8 °F - 44.6 °F 76% 30.24 in - SW 8.1 mph - N/A   Clear
9:00 AM 53.6 °F - 46.4 °F 77% 30.24 in 6.2 mi SSW 4.6 mph - N/A   Partly Cloudy
9:30 AM 55.4 °F - 42.8 °F 63% 30.24 in 6.2 mi SSW 4.6 mph - N/A   Scattered Clouds
10:00 AM 55.4 °F - 44.6 °F 67% 30.24 in 6.2 mi SSW 4.6 mph - N/A   Scattered Clouds
10:30 AM 55.4 °F - 42.8 °F 63% 30.24 in 6.2 mi SW 5.8 mph - N/A   Scattered Clouds
11:00 AM 55.4 °F - 44.6 °F 67% 30.24 in 6.2 mi West 4.6 mph - N/A   Scattered Clouds
11:30 AM 57.2 °F - 44.6 °F 63% 30.24 in 6.2 mi WSW 5.8 mph - N/A   Scattered Clouds
12:01 PM 59.0 °F - 46.4 °F 63% 30.24 in 6.2 mi WSW 6.9 mph - N/A   Partly Cloudy
12:30 PM 57.2 °F - 44.6 °F 63% 30.24 in 6.2 mi SSW 5.8 mph - N/A   Partly Cloudy
1:00 PM 57.2 °F - 44.6 °F 63% 30.24 in 6.2 mi SW 5.8 mph - N/A   Partly Cloudy
1:30 PM 59.0 °F - 46.4 °F 63% 30.24 in 6.2 mi South 5.8 mph - N/A   Scattered Clouds
2:00 PM 59 °F - 42 °F 43% 30.23 in 25 mi SSE 4.5 mph - -   Scattered Clouds
2:00 PM 59.0 °F - 42.8 °F 55% 30.21 in 6.2 mi SSE 5.8 mph - N/A   Partly Cloudy
2:30 PM 59.0 °F - 42.8 °F 55% 30.21 in 6.2 mi South 5.8 mph - N/A   Partly Cloudy
3:00 PM 59.0 °F - 42.8 °F 55% 30.21 in 6.2 mi South 4.6 mph - N/A   Partly Cloudy
3:30 PM 59.0 °F - 44.6 °F 59% 30.21 in 6.2 mi South 4.6 mph - N/A   Partly Cloudy
4:00 PM 60.8 °F - 42.8 °F 52% 30.21 in 6.2 mi South 4.6 mph - N/A   Partly Cloudy
4:30 PM 59.0 °F - 44.6 °F 59% 30.21 in 6.2 mi South 5.8 mph - N/A   Partly Cloudy
5:00 PM 59.0 °F - 44.6 °F 59% 30.21 in 6.2 mi South 4.6 mph - N/A   Partly Cloudy
5:30 PM 57.2 °F - 48.2 °F 72% 30.21 in 6.2 mi SSW 4.6 mph - N/A   Partly Cloudy
6:00 PM 57.2 °F - 48.2 °F 72% 30.21 in 6.2 mi WSW 6.9 mph - N/A   Partly Cloudy
6:30 PM 57.2 °F - 46.4 °F 67% 30.21 in 6.2 mi SW 4.6 mph - N/A   Partly Cloudy
7:00 PM 55.4 °F - 48.2 °F 77% 30.18 in 6.2 mi SW 5.8 mph - N/A   Partly Cloudy
7:30 PM 55.4 °F - 46.4 °F 72% 30.18 in - SSW 4.6 mph - N/A   Clear
8:00 PM 55 °F - 47 °F 68% 30.20 in 31 mi South 4.5 mph - -   Scattered Clouds
8:00 PM 55.4 °F - 48.2 °F 77% 30.18 in - South 3.5 mph - N/A   Clear
8:30 PM 55.4 °F - 46.4 °F 72% 30.18 in - South 3.5 mph - N/A   Clear
9:00 PM 53.6 °F - 48.2 °F 82% 30.18 in - SSE 3.5 mph - N/A   Clear
9:30 PM 53.6 °F - 48.2 °F 82% 30.18 in - South 3.5 mph - N/A   Clear
10:00 PM 51.8 °F - 46.4 °F 82% 30.18 in - SSW 4.6 mph - N/A   Clear
10:30 PM 50.0 °F - 46.4 °F 87% 30.18 in - SSW 4.6 mph - N/A   Clear
11:00 PM 50.0 °F - 46.4 °F 87% 30.18 in - SSW 3.5 mph - N/A   Clear
11:30 PM 48.2 °F - 44.6 °F 87% 30.18 in - SW 5.8 mph - N/A   Clear